Ely, NV

10:49 PM PST on November 17, 2017 (GMT -0800)
Ely

Weather History for KELY - October, 2013

Change the Weather History Date:

Friday, October 4, 2013

  Actual Average Record
Temperature  
Mean Temperature 36 °F 49 °F  
Max Temperature 50 °F 68 °F 83 °F (1987)
Min Temperature 22 °F 31 °F 16 °F (1973)
Degree Days  
Heating Degree Days 29 16  
Month to date heating degree days 77 61  
Since 1 July heating degree days 308 377  
Cooling Degree Days 0 0  
Month to date cooling degree days 0 0  
Year to date cooling degree days 387 218  
Moisture  
Dew Point 19 °F    
Average Humidity 47    
Maximum Humidity 69    
Minimum Humidity 25    
Precipitation  
Precipitation 0.00 in 0.03 in 0.78 in (1974)
Month to date precipitation T 0.13  
Year to date precipitation 5.86 7.60  
Snow  
Snow 0.00 in 0.10 in 2.30 in (2009)
Month to date snowfall 0.0 0.3  
Since 1 July snowfall T 0.7  
Since 1 September snowfall T 0.7  
Snow Depth 0.00 in    
Sea Level Pressure  
Sea Level Pressure 30.29 in    
Wind  
Wind Speed 9 mph (NNW)    
Max Wind Speed 24 mph    
Max Gust Speed 35 mph    
Visibility 10 miles    
Events      
T = Trace of Precipitation, MM = Missing Value Source: NWS Daily Summary

Daily Weather History Graph

Daily Weather History Graph

Search for Another Location

Airport or City:

Trip Planner

Search our weather history database for the weather conditions in past years. The results will help you decide how hot, cold, wet, or windy it might be!

Date:

Astronomy

Oct. 04, 2013 Rise Set
Actual Time 6:38 AM PDT 6:16 PM PDT
Civil Twilight 6:11 AM PDT 6:43 PM PDT
Nautical Twilight 5:40 AM PDT 7:14 PM PDT
Astronomical Twilight 5:09 AM PDT 7:45 PM PDT
Moon 6:18 AM PDT (10/4) 6:01 PM PDT (10/4)
Length of Visible Light 12h 31m
Length of Day
11h 38m
Waning Crescent, 0% of the Moon is Illuminated
Oct 4
Waning Crescent
Oct 4
New
Oct 11
First Quarter
Oct 18
Full
Oct 26
Last Quarter

Hourly Weather History & Observations

Time (PDT) Temp. Windchill Dew Point Humidity Pressure Visibility Wind Dir Wind Speed Gust Speed Precip Events Conditions
12:53 AM 34.0 °F 29.8 °F 21.0 °F 59% 30.15 in 10.0 mi NNW 4.6 mph - N/A   Overcast
1:53 AM 30.0 °F 25.2 °F 21.0 °F 69% 30.17 in 10.0 mi Variable 4.6 mph - N/A   Clear
2:53 AM 28.9 °F - 19.9 °F 69% 30.18 in 10.0 mi Calm Calm - N/A   Clear
3:53 AM 28.0 °F 20.8 °F 19.9 °F 72% 30.18 in 10.0 mi WNW 6.9 mph - N/A   Mostly Cloudy
4:53 AM 30.0 °F 25.2 °F 21.0 °F 69% 30.19 in 10.0 mi West 4.6 mph - N/A   Overcast
5:53 AM 30.0 °F 24.1 °F 21.0 °F 69% 30.22 in 10.0 mi NW 5.8 mph - N/A   Overcast
6:53 AM 30.9 °F 24.3 °F 21.9 °F 69% 30.25 in 10.0 mi NNW 6.9 mph - N/A   Mostly Cloudy
7:53 AM 35.1 °F 29.3 °F 21.9 °F 59% 30.25 in 10.0 mi NNW 6.9 mph - N/A   Mostly Cloudy
8:53 AM 39.0 °F 31.0 °F 23.0 °F 53% 30.26 in 10.0 mi North 13.8 mph - N/A   Clear
9:53 AM 42.1 °F 33.6 °F 21.0 °F 43% 30.27 in 10.0 mi North 18.4 mph 21.9 mph N/A   Clear
10:53 AM 44.1 °F 36.2 °F 18.0 °F 35% 30.28 in 10.0 mi NNW 18.4 mph 27.6 mph N/A   Clear
11:53 AM 46.0 °F 39.3 °F 12.9 °F 26% 30.29 in 10.0 mi NNE 16.1 mph 26.5 mph N/A   Clear
12:53 PM 46.9 °F - 18.0 °F 32% 30.27 in 10.0 mi NNE 10.4 mph 26.5 mph N/A   Scattered Clouds
1:53 PM 48.0 °F - 18.0 °F 30% 30.28 in 10.0 mi Variable 6.9 mph 26.5 mph N/A   Scattered Clouds
2:53 PM 48.9 °F - 18.0 °F 29% 30.28 in 10.0 mi NNE 13.8 mph 21.9 mph N/A   Clear
3:53 PM 48.9 °F - 19.0 °F 31% 30.29 in 10.0 mi North 11.5 mph 19.6 mph N/A   Clear
4:53 PM 46.9 °F - 18.0 °F 32% 30.31 in 10.0 mi North 10.4 mph - N/A   Clear
5:53 PM 45.0 °F 39.7 °F 19.0 °F 36% 30.33 in 10.0 mi North 10.4 mph - N/A   Clear
6:53 PM 39.0 °F 32.8 °F 18.0 °F 43% 30.37 in 10.0 mi NNW 9.2 mph - N/A   Clear
7:53 PM 37.0 °F 29.3 °F 19.0 °F 48% 30.38 in 10.0 mi North 11.5 mph - N/A   Clear
8:53 PM 36.0 °F 29.0 °F 19.0 °F 50% 30.38 in 10.0 mi North 9.2 mph - N/A   Clear
9:53 PM 30.0 °F - 17.1 °F 59% 30.42 in 10.0 mi Calm Calm - N/A   Clear
10:53 PM 27.0 °F 23.0 °F 16.0 °F 63% 30.40 in 10.0 mi NW 3.5 mph - N/A   Clear
11:53 PM 23.0 °F 14.7 °F 14.0 °F 68% 30.43 in 10.0 mi SSE 6.9 mph - N/A   Clear